When you browse on this site, cookies collect data to enhance your experience and personalize the content and advertising you see.
Visit our Privacy Policy to learn more. By continuing to use the site, you agree to this use of cookies and data.
  • En España
  • Lista de países
  • Para 7 días
  • Temperatura del agua
  • El tiempo en el mapa
  • Informadores
  • user-avatar
    Iniciar sesión

    Tiempo cada hora Taldy Kurgan

    Hoy, 6 Junio, Sábado

    Tiempo Temperatura Precipitaciones Viento Presión Humedad
    00:00 +10°C° 0 mm 2 mps 712 mmHg 41%
    01:00 +10°C° 0 mm 2 mps 712 mmHg 43%
    02:00 +9°C° 0 mm 2 mps 712 mmHg 45%
    03:00 +9°C° 0 mm 2 mps 713 mmHg 46%
    04:00 +10°C° 0 mm 2 mps 714 mmHg 48%
    05:00 +12°C° 0 mm 2 mps 714 mmHg 50%
    06:00 +13°C° 0 mm 4 mps 715 mmHg 43%
    07:00 +16°C° 0 mm 6 mps 715 mmHg 36%
    08:00 +18°C° 0 mm 7 mps 716 mmHg 28%
    09:00 +21°C° 0 mm 8 mps 716 mmHg 26%
    10:00 +22°C° 0 mm 8 mps 716 mmHg 24%
    11:00 +23°C° 0 mm 8 mps 716 mmHg 22%
    12:00 +23°C° 0 mm 8 mps 716 mmHg 20%
    13:00 +24°C° 0 mm 8 mps 715 mmHg 19%
    14:00 +24°C° 0 mm 8 mps 715 mmHg 18%
    15:00 +24°C° 0 mm 8 mps 715 mmHg 20%
    16:00 +23°C° 0 mm 9 mps 715 mmHg 22%
    17:00 +23°C° 0 mm 9 mps 715 mmHg 24%
    18:00 +21°C° 0 mm 8 mps 715 mmHg 29%
    19:00 +18°C° 0 mm 7 mps 715 mmHg 34%
    20:00 +16°C° 0 mm 6 mps 715 mmHg 39%
    21:00 +15°C° 0 mm 6 mps 715 mmHg 42%
    22:00 +14°C° 0 mm 5 mps 715 mmHg 46%
    23:00 +13°C° 0 mm 5 mps 715 mmHg 50%

    Mañana, 7 Junio, Domingo

    Tiempo Temperatura Precipitaciones Viento Presión Humedad
    00:00 +12°C° 0 mm 4 mps 715 mmHg 52%
    01:00 +12°C° 0 mm 4 mps 714 mmHg 53%
    02:00 +11°C° 0 mm 4 mps 714 mmHg 55%
    03:00 +11°C° 0 mm 4 mps 714 mmHg 55%
    04:00 +12°C° 0 mm 4 mps 715 mmHg 55%
    05:00 +12°C° 0 mm 4 mps 715 mmHg 55%
    06:00 +14°C° 0 mm 5 mps 715 mmHg 47%
    07:00 +17°C° 0 mm 6 mps 715 mmHg 40%
    08:00 +20°C° 0 mm 7 mps 715 mmHg 32%
    09:00 +22°C° 0 mm 7 mps 715 mmHg 30%
    10:00 +23°C° 0 mm 8 mps 716 mmHg 27%
    11:00 +26°C° 0 mm 8 mps 716 mmHg 24%
    12:00 +27°C° 0 mm 8 mps 715 mmHg 23%
    13:00 +27°C° 0 mm 8 mps 715 mmHg 21%
    14:00 +28°C° 0 mm 8 mps 714 mmHg 19%
    15:00 +28°C° 0 mm 8 mps 714 mmHg 21%
    16:00 +27°C° 0 mm 8 mps 714 mmHg 22%
    17:00 +26°C° 0 mm 9 mps 714 mmHg 24%
    18:00 +23°C° 0 mm 8 mps 714 mmHg 28%
    19:00 +21°C° 0 mm 7 mps 713 mmHg 32%
    20:00 +19°C° 0 mm 6 mps 713 mmHg 36%
    21:00 +17°C° 0 mm 5 mps 713 mmHg 38%
    22:00 +16°C° 0 mm 5 mps 713 mmHg 39%
    23:00 +15°C° 0 mm 5 mps 713 mmHg 40%

    Pasado mañana, 8 Junio, Lunes

    Tiempo Temperatura Precipitaciones Viento Presión Humedad
    00:00 +14°C° 0 mm 4 mps 712 mmHg 43%
    01:00 +13°C° 0 mm 3 mps 712 mmHg 46%
    02:00 +12°C° 0 mm 3 mps 712 mmHg 49%
    03:00 +12°C° 0 mm 3 mps 712 mmHg 49%
    04:00 +13°C° 0 mm 2 mps 712 mmHg 48%
    05:00 +14°C° 0 mm 2 mps 712 mmHg 47%
    06:00 +17°C° 0 mm 3 mps 712 mmHg 40%
    07:00 +20°C° 0 mm 4 mps 712 mmHg 33%
    08:00 +23°C° 0 mm 5 mps 712 mmHg 26%
    09:00 +26°C° 0 mm 5 mps 712 mmHg 23%
    10:00 +28°C° 0 mm 5 mps 712 mmHg 20%
    11:00 +30°C° 0 mm 6 mps 712 mmHg 17%
    12:00 +30°C° 0 mm 6 mps 712 mmHg 16%
    13:00 +32°C° 0 mm 6 mps 711 mmHg 15%
    14:00 +32°C° 0 mm 6 mps 711 mmHg 14%
    15:00 +32°C° 0 mm 7 mps 711 mmHg 15%
    16:00 +30°C° 0 mm 7 mps 711 mmHg 15%
    17:00 +29°C° 0 mm 7 mps 711 mmHg 16%
    18:00 +28°C° 0 mm 6 mps 711 mmHg 17%
    19:00 +26°C° 0 mm 5 mps 710 mmHg 19%
    20:00 +23°C° 0 mm 5 mps 710 mmHg 20%
    21:00 +22°C° 0 mm 4 mps 711 mmHg 21%
    22:00 +22°C° 0 mm 4 mps 711 mmHg 22%
    23:00 +21°C° 0 mm 4 mps 711 mmHg 24%

    9 Junio, Martes

    Tiempo Temperatura Precipitaciones Viento Presión Humedad
    00:00 +20°C° 0 mm 3 mps 711 mmHg 27%
    01:00 +19°C° 0 mm 3 mps 711 mmHg 31%
    02:00 +18°C° 0 mm 2 mps 710 mmHg 34%
    03:00 +18°C° 0 mm 2 mps 711 mmHg 37%
    04:00 +18°C° 0 mm 1 mps 711 mmHg 41%
    05:00 +18°C° 0 mm 1 mps 711 mmHg 44%
    06:00 +20°C° 0 mm 1 mps 712 mmHg 39%
    07:00 +22°C° 0 mm 1 mps 712 mmHg 35%
    08:00 +24°C° 0 mm 2 mps 713 mmHg 30%
    09:00 +26°C° 0 mm 2 mps 713 mmHg 27%
    10:00 +27°C° 0 mm 2 mps 713 mmHg 23%
    11:00 +29°C° 0 mm 2 mps 713 mmHg 20%
    12:00 +30°C° 0 mm 3 mps 713 mmHg 19%
    13:00 +32°C° 0 mm 4 mps 713 mmHg 19%
    14:00 +32°C° 0 mm 4 mps 713 mmHg 18%
    15:00 +32°C° 0 mm 4 mps 713 mmHg 18%
    16:00 +32°C° 0 mm 4 mps 712 mmHg 19%
    17:00 +30°C° 0 mm 4 mps 712 mmHg 19%
    18:00 +28°C° 0 mm 4 mps 712 mmHg 23%
    19:00 +25°C° 0 mm 3 mps 712 mmHg 26%
    20:00 +21°C° 0 mm 3 mps 712 mmHg 29%
    21:00 +20°C° 0 mm 2 mps 711 mmHg 31%
    22:00 +19°C° 0 mm 2 mps 711 mmHg 33%
    23:00 +18°C° 0 mm 2 mps 711 mmHg 34%

    10 Junio, Miércoles

    Tiempo Temperatura Precipitaciones Viento Presión Humedad
    00:00 +18°C° 0 mm 2 mps 711 mmHg 37%
    01:00 +17°C° 0 mm 2 mps 711 mmHg 40%
    02:00 +17°C° 0 mm 2 mps 711 mmHg 42%
    03:00 +17°C° 0 mm 2 mps 711 mmHg 43%
    04:00 +17°C° 0 mm 2 mps 711 mmHg 44%
    05:00 +17°C° 0 mm 2 mps 711 mmHg 45%
    06:00 +20°C° 0 mm 3 mps 712 mmHg 41%
    07:00 +22°C° 0 mm 3 mps 712 mmHg 37%
    08:00 +26°C° 0 mm 4 mps 713 mmHg 33%
    09:00 +27°C° 0 mm 5 mps 713 mmHg 30%
    10:00 +28°C° 0 mm 5 mps 713 mmHg 28%
    11:00 +29°C° 0 mm 5 mps 713 mmHg 26%
    12:00 +29°C° 0 mm 6 mps 713 mmHg 26%
    13:00 +29°C° 0 mm 7 mps 712 mmHg 26%
    14:00 +30°C° 0 mm 7 mps 712 mmHg 25%
    15:00 +29°C° 0 mm 7 mps 712 mmHg 27%
    16:00 +28°C° 0 mm 8 mps 712 mmHg 28%
    17:00 +26°C° 0 mm 8 mps 712 mmHg 30%
    18:00 +23°C° 0 mm 7 mps 712 mmHg 29%
    19:00 +22°C° 0 mm 6 mps 713 mmHg 28%
    20:00 +20°C° 0 mm 4 mps 713 mmHg 27%
    21:00 +19°C° 0 mm 4 mps 713 mmHg 32%
    22:00 +18°C° 0 mm 4 mps 713 mmHg 36%
    23:00 +17°C° 0 mm 4 mps 713 mmHg 40%

    11 Junio, Jueves

    Tiempo Temperatura Precipitaciones Viento Presión Humedad
    00:00 +14°C° 0 mm 4 mps 713 mmHg 44%
    01:00 +13°C° 0 mm 3 mps 713 mmHg 48%
    02:00 +13°C° 0 mm 2 mps 713 mmHg 53%
    03:00 +13°C° 0 mm 2 mps 713 mmHg 54%
    04:00 +13°C° 0 mm 2 mps 713 mmHg 55%
    05:00 +13°C° 0 mm 2 mps 713 mmHg 56%
    06:00 +16°C° 0 mm 3 mps 714 mmHg 49%
    07:00 +18°C° 0 mm 4 mps 714 mmHg 42%
    08:00 +21°C° 0 mm 5 mps 715 mmHg 35%
    09:00 +22°C° 0 mm 5 mps 715 mmHg 31%
    10:00 +23°C° 0 mm 5 mps 715 mmHg 27%
    11:00 +26°C° 0 mm 6 mps 715 mmHg 24%
    12:00 +27°C° 0 mm 6 mps 714 mmHg 22%
    13:00 +27°C° 0 mm 6 mps 714 mmHg 21%
    14:00 +28°C° 0 mm 6 mps 714 mmHg 20%
    15:00 +28°C° 0 mm 6 mps 713 mmHg 20%
    16:00 +27°C° 0 mm 6 mps 713 mmHg 21%
    17:00 +27°C° 0 mm 6 mps 713 mmHg 21%
    18:00 +23°C° 0 mm 5 mps 713 mmHg 25%
    19:00 +21°C° 0 mm 4 mps 713 mmHg 28%
    20:00 +18°C° 0 mm 3 mps 713 mmHg 32%
    21:00 +17°C° 0 mm 2 mps 712 mmHg 36%
    22:00 +16°C° 0 mm 2 mps 712 mmHg 39%
    23:00 +14°C° 0 mm 1 mps 712 mmHg 43%
    Mostrar más